STARLINK-32460, 61914

Orbit data source: Space-Track

STARLINK-32460, 61914 is a payload satellite owned by SpaceX/Seattle (US) in LEO that was launched on Mon, 11 Nov 2024 UTC via an FALCON 9 launch vehicle from the Air Force Eastern Test Range (AFETR). Payload-class satellites include a variety of spacecraft equipped with specific instruments for various scientific and technological missions. These include communications satellites like Starlink; space stations such as the ISS; scientific satellites like the Hubble; Earth observation satellites from companies like Planet Labs, Umbra, and HawkEye 360; GPS; miniature CubeSats for education and research; and military/defense satellites.

Loading next visibility...
Identifier
61914, 2024-207C
Orbit
LEO
Country
Flag of USUS
Related business
Manufacturer
SpaceX/Seattle
Mission
Operational Commercial Communications
Bus & Motor
STARLINK V2M, Unknown motor
Mass
730 kg wet, ~700 kg dry
Launch date (UTC)
2024-11-11 (1 year ago)
Launch vehicle
FALCON 9
Launch site
Air Force Eastern Test Range (AFETR)
Object type
Payload
Rocket body
Debris
Shape & HBR
Box + 2 Pan, 17.7 m
Radar Cross Section
33.884 m², Large (>1 m²)

Expand to show TLE details & history
Last TLE update: 1 day ago

TLE from 1 day ago
0 STARLINK-32460
1 61914U 24207C   26072.52583336  .00041713  00000-0  15146-2 0  9993
2 61914  42.9991 259.6572 0001081 208.9039 151.1753 15.27628478 75313
Epoch: 2026-03-13T12:37Z
TLE epoch observation values (Epoch: 2026-03-13T12:37:12.002Z)
Latitude
-0°
Longitude
-100.80292°
Altitude
483.329 km
Speed
7.625 km/s
True Right ascension
17h 18m 37s
True Declination
0° 00' 00"
Sunlit
Object was in daylight at epoch
Visualization orbit readout
Latitude
Unknown
Longitude
Unknown
Altitude
Unknown
Speed
Unknown
Apparent Right ascension
Unknown
Apparent Declination
Unknown
Sunlit
N/A
Visualization observer readout
Local Sidereal Time
20:56:44
Azimuth
Unknown
Elevation
Unknown
Doppler factor
Unknown
Orbital elements
Apogee altitude
485.591 km
Perigee altitude
484.107 km
Semi-major axis
6,862.986 km
Eccentricity
0.00011
Inclination
42.9991°
RAAN
259.6572°
Arg. of periapsis
208.9039°
True anomaly
151.18127°
Mean anomaly
151.1753°
Eccentric anomaly
151.17829°
Mean motion
3.81745 °/min
Orbital period
94.3 mins
BSTAR
0.0015146
Loading maneuver chart data...
Computing Atmospheric mass density...
Loading historical data...
Loading historical data...
Loading historical data...
Loading historical data...
Loading historical data...
Loading historical data...
Loading historical data...

Documentation

Showing up to 5 results
|